Location: Branche des Alpilles
(43.6087°N, 4.6976°E)
Time: 13:05:20
(UTC+00:00)

NOSS 3-2 (A) - Pass Details

Date: 30 November 2020
Orbit: 789 x 1419 km, 63.4° (Epoch: 22 January)

Event Time Altitude Azimuth Distance (km) Brightness Sun altitude
Rises 19:17:39 0° 236° (WSW) 3,352 7.0 -34.1°
Reaches altitude 10° 19:20:04 10° 243° (WSW) 2,472 6.3 -34.5°
Enters shadow 19:24:51 44° 297° (WNW) 1,242 4.3 -35.4°
